196  
NZUS99 KDVN 211310  
HRRRRR  
HOURLY WEATHER ROUNDUP  
NATIONAL WEATHER SERVICE QUAD CITIES IA IL  
700 AM CST TUE NOV 21 2017  
 
NOTE: "FAIR" INDICATES FEW OR NO CLOUDS BELOW 12,000 FEET WITH  
NO SIGNIFICANT WEATHER AND/OR OBSTRUCTIONS TO VISIBILITY.  
------------------------------------------------------------------  
 
CITY SKY/WX TMP DP RH WIND PRES REMARKS  
BURLINGTON CLOUDY 44 32 62 NW5 29.80R WCI 42  
CEDAR RAPIDS LGT RAIN 39 23 52 NW20G25 29.81R WCI 29  
DAVENPORT CLOUDY 41 30 65 W12 29.77R WCI 34  
DUBUQUE CLOUDY 38 18 44 NW15 29.73R WCI 29  
IOWA CITY CLOUDY 43 25 49 NW14G23 29.82R WCI 36  
MOLINE CLOUDY 44 28 53 W10 29.75R WCI 39  
------------------------------------------------------------------  
THE STATIONS BELOW ARE NOT NWS STATIONS AND ARE NOT SUBJECT TO NWS  
QUALITY CONTROL. SOME STATIONS DO NOT REPORT WEATHER SUCH AS FOG.  
* - STATIONS THAT REPORT TMP AND DP IN WHOLE DEGREES CELSIUS, WHICH  
ARE THEN CONVERTED TO FAHRENHEIT.  
------------------------------------------------------------------  
 
CITY SKY/WX TMP DP RH WIND PRES REMARKS  
CLINTON CLOUDY 41 31 67 W14 29.75R WCI 33  
FAIRFIELD * CLOUDY 41 28 60 NW14 29.83R WCI 33  
FORT MADISON * CLOUDY 45 34 65 NW8 29.82R WCI 40  
FREEPORT CLOUDY 40 32 71 W9 29.70R WCI 34  
INDEPENDENCE * CLOUDY 35 19 51 NW18G35 29.80R WCI 25  
KEOKUK * CLOUDY 43 32 65 W9 29.81R WCI 37  
MACOMB CLOUDY 41 33 73 W10 29.81R WCI 35  
MONTICELLO * CLOUDY 39 18 41 NW22G33 29.77R WCI 29  
MT PLEASANT CLOUDY 43 28 55 NW9 29.82R WCI 37  
MUSCATINE * CLOUDY 43 30 61 NW15 29.81R WCI 35  
SAVANNA CLOUDY 42 30 61 W10 29.73R WCI 36  
STERLING/R.F. N/A N/A N/A N/A MISG N/A  
VINTON * CLOUDY 39 16 38 NW13G18 29.83R WCI 32  
WASHINGTON * CLOUDY 43 27 52 NW15G24 29.83R WCI 35  
------------------------------------------------------------------  
 
 
CLICK HERE TO GO TO PREVIOUS BULLETINS.

The Nexlab IL Page
The Nexlab IA Page
The Nexlab MO Page Main Text Page